Regional Weather Roundup
Issued by NWS

Home | Current Version | Previous Version | Text Only | Print | Product List | Glossary On
Versions: 1 2 3 4 5 6 7 8 9 10 11 12 13 14 15 16 17 18 19 20 21 22 23 24 25 26 27 28 29 30 31 32 33 34 35 36 37 38 39 40 41 42 43 44 45 46 47 48 49 50
000
ASUS43 KBIS 250002
RWRND

NORTH DAKOTA REGIONAL WEATHER ROUNDUP
NATIONAL WEATHER SERVICE BISMARCK ND
700 PM CDT WED MAY 24 2017

NOTE: "FAIR" INDICATES FEW OR NO CLOUDS BELOW 12,000 FEET WITH NO
SIGNIFICANT WEATHER AND/OR OBSTRUCTIONS TO VISIBILITY.


NDZ001>003-009>011-017-250100-
NORTHWEST NORTH DAKOTA

CITY           SKY/WX    TMP DP  RH WIND       PRES   REMARKS
WILLISTON      CLOUDY    64  57  78 W12       29.31R
6HR MIN TEMP:  63; 6HR MAX TEMP:  80; 6HR PCP: TRACE;

MINOT          FAIR      70  35  27 SE20G37   29.36F
MINOT AFB      MOSUNNY   70  36  29 S30G38    29.35F
$$

NDZ018>021-031>035-040>046-250100-
SOUTHWEST NORTH DAKOTA

CITY           SKY/WX    TMP DP  RH WIND       PRES   REMARKS
BISMARCK       FAIR      70  40  33 S23G33    29.44F
6HR MIN TEMP:  65; 6HR MAX TEMP:  72;

DICKINSON      FAIR      68  35  29 SE31G37   29.31F
GARRISON         N/A     67  40  37 S23G38    29.37F
6HR MIN TEMP:  64; 6HR MAX TEMP:  71;

HETTINGER ARPT SUNNY     72  38  29 SE24G35   29.36F
$$

NDZ004>008-012>016-024-026-027-054-250100-
NORTHEAST NORTH DAKOTA

CITY           SKY/WX    TMP DP  RH WIND       PRES   REMARKS
GRAND FORKS    MOSUNNY   67  41  38 SE24      29.60S
GRND FRKS AFB  SUNNY     62  41  45 S17       29.60S
DEVILS LAKE    FAIR      63  43  48 SE22G32   29.53F
$$

NDZ022-023-025-028>030-036>039-047>053-250100-
SOUTHEAST NORTH DAKOTA

CITY           SKY/WX    TMP DP  RH WIND       PRES   REMARKS
FARGO          CLOUDY    65  42  43 S15G23    29.62F
6HR MIN TEMP:  63; 6HR MAX TEMP:  67;

JAMESTOWN      FAIR      64  43  46 SE21G29   29.54F
$$





USA.gov is the U.S. government's official web portal to all federal, state and local government web resources and services.